Location: Rio Negrinho
(26.2394°S, 49.4999°W)
Time: 13:32:23
(UTC+00:00)

Envisat - Pass Details

Date: 28 July 2021
Orbit: 764 x 766 km, 98.2° (Epoch: 28 September)

Event Time Altitude Azimuth Distance (km) Brightness Sun altitude
Rises 07:32:04 0° 26° (NNE) 3,216 6.6 -32.9°
Reaches altitude 10° 07:34:25 10° 31° (NNE) 2,297 5.9 -32.4°
Maximum altitude 07:39:18 50° 105° (ESE) 978 3.7 -31.3°
Enters shadow 07:39:33 49° 116° (ESE) 985 3.7 -31.2°
